Temperature
9 9 8 8 8 8 8 9 10 10 10 10 10 9 9 8 7 6 6 6 6 6 6 7 7 7 7 7 7 7 7 7 7 7 6 6 6 6 6 5 5 5 5 5
7 8 7 7 8 8 8 8 8 9 9 10 9 8 8 7 6 6 6 6 6 6 6 7 7 7 7 7 7 7 7 6 6 6 6 6 6 5 5 5 5 5 5 5
8 7 7 8 9 8 8 8 8 8 9 9 8 8 7 6 6 6 5 5 6 6 6 6 6 6 6 6 6 6 6 6 6 6 6 5 5 5 5 5 4 4 4 4
7 7 7 10 8 8 8 8 7 7 8 7 7 6 5 5 5 5 5 5 5 6 6 6 6 6 6 6 6 6 5 5 5 5 5 5 5 5 5 4 4 4 4 4
6 7 8 9 7 6 7 7 7 7 7 6 5 5 6 5 5 5 5 5 5 5 6 6 6 6 5 5 5 5 5 5 5 5 5 5 4 4 4 4 3 3 3 3
6 6 7 8 6 5 7 7 6 6 6 5 5 7 7 5 4 4 5 5 5 5 5 5 5 5 5 5 5 5 5 5 4 4 4 4 4 3 3 3 3 3 3 3
5 6 7 7 5 5 7 7 5 4 4 4 5 5 4 4 4 4 4 4 4 4 5 5 4 4 4 4 4 4 4 4 4 3 3 3 3 3 3 2 2 2 2 2
5 5 6 5 5 6 6 4 4 3 3 3 3 3 3 3 4 4 4 4 4 4 4 4 4 4 4 4 4 4 3 3 3 3 3 2 2 2 2 2 2 2 1 2
5 6 5 3 4 4 3 3 3 3 3 3 3 3 3 3 3 3 3 3 3 3 3 3 3 3 3 3 3 3 3 3 3 2 2 2 2 1 1 1 1 1 1 1
4 4 3 3 3 3 3 3 3 3 3 3 2 2 2 2 2 2 3 3 3 3 3 3 3 2 2 2 2 2 2 2 2 2 1 1 1 1 1 1 1 1 0 0
3 3 3 2 2 2 2 2 2 2 2 2 2 2 2 2 2 2 2 2 2 2 2 2 2 2 2 2 2 2 1 1 1 1 1 1 0 0 0 0 0 -0 -0 -0
3 3 3 2 2 2 2 1 1 1 1 1 1 1 1 1 1 1 1 1 1 1 1 1 1 1 1 1 1 1 1 1 0 0 0 -0 -0 -0 -0 -0 -0 -1 -1 -1
2 1 1 1 1 1 1 1 1 1 0 0 0 0 0 1 1 1 1 1 1 1 1 1 1 1 1 1 0 0 0 0 0 -0 -0 -1 -1 -1 -1 -1 -1 -1 -1 -1
0 0 0 0 0 0 -0 -0 -0 -0 -0 -0 -0 -0 -0 0 0 0 0 0 0 -0 0 0 0 0 0 0 -0 -0 -0 -0 -1 -1 -1 -1 -1 -2 -2 -2 -1 -1 -2 -2
-1 -0 -1 -1 -1 -1 -1 -1 -1 -1 -1 -1 -1 -1 -1 -1 -1 -1 -1 -1 -1 -1 -1 -1 -1 -1 -1 -1 -1 -1 -1 -1 -1 -1 -2 -2 -2 -2 -2 -2 -2 -2 -2 -2
-1 -1 -1 -1 -1 -1 -2 -2 -2 -2 -2 -2 -2 -2 -2 -2 -1 -1 -1 -1 -1 -1 -1 -1 -1 -1 -1 -1 -1 -1 -1 -2 -2 -2 -2 -2 -3 -3 -3 -3 -3 -3 -3 -3
-2 -2 -2 -2 -2 -2 -2 -2 -2 -2 -2 -2 -2 -2 -2 -2 -2 -2 -2 -2 -2 -2 -2 -2 -2 -2 -2 -2 -2 -2 -2 -2 -3 -3 -3 -3 -3 -3 -3 -4 -4 -4 -4 -4
-3 -3 -3 -3 -3 -3 -3 -3 -3 -3 -3 -3 -3 -3 -3 -3 -3 -3 -3 -3 -2 -2 -2 -3 -3 -3 -3 -3 -3 -3 -3 -3 -3 -3 -3 -3 -4 -4 -4 -4 -4 -4 -4 -4
-3 -3 -3 -3 -3 -3 -3 -4 -4 -4 -3 -4 -4 -3 -3 -3 -3 -3 -3 -3 -3 -3 -3 -3 -3 -3 -3 -3 -3 -4 -4 -4 -4 -4 -4 -4 -4 -4 -4 -5 -5 -5 -5 -5
-4 -4 -4 -4 -4 -4 -4 -4 -4 -4 -4 -4 -4 -4 -4 -4 -4 -4 -4 -4 -4 -4 -4 -4 -4 -4 -4 -4 -4 -4 -4 -4 -4 -4 -4 -4 -5 -5 -5 -5 -5 -5 -6 -6
-4 -4 -4 -4 -4 -4 -4 -5 -5 -4 -4 -4 -4 -4 -4 -4 -4 -4 -4 -4 -4 -4 -4 -4 -4 -4 -4 -4 -4 -5 -5 -5 -5 -5 -5 -5 -5 -5 -5 -6 -6 -6 -6 -6
-5 -5 -5 -5 -5 -5 -5 -5 -5 -5 -5 -5 -5 -5 -5 -5 -5 -5 -5 -5 -5 -5 -5 -5 -5 -5 -5 -5 -5 -5 -5 -5 -5 -5 -5 -6 -6 -6 -6 -6 -6 -6 -6 -7
-6 -6 -6 -6 -6 -6 -6 -6 -6 -6 -6 -6 -6 -6 -6 -6 -6 -6 -6 -5 -5 -5 -5 -6 -6 -6 -6 -6 -6 -6 -6 -6 -6 -6 -6 -6 -6 -6 -6 -7 -7 -7 -7 -7
-6 -6 -6 -6 -6 -6 -6 -6 -6 -6 -6 -6 -6 -6 -6 -6 -6 -6 -6 -6 -6 -6 -6 -6 -6 -6 -6 -6 -6 -6 -6 -6 -6 -6 -6 -7 -7 -7 -7 -7 -7 -7 -7 -7
-7 -7 -7 -7 -7 -7 -7 -7 -7 -7 -7 -7 -7 -7 -7 -7 -7 -7 -7 -7 -7 -7 -7 -7 -7 -7 -7 -7 -7 -7 -7 -7 -7 -7 -7 -7 -7 -7 -7 -7 -7 -7 -8 -8
-8 -8 -8 -8 -8 -8 -8 -8 -8 -8 -8 -8 -8 -8 -8 -8 -8 -8 -8 -8 -8 -8 -8 -7 -7 -7 -7 -8 -8 -8 -8 -7 -7 -7 -7 -8 -8 -8 -8 -8 -8 -8 -8 -8
-8 -8 -8 -8 -8 -8 -9 -9 -9 -9 -9 -9 -9 -9 -9 -9 -9 -9 -8 -8 -8 -8 -8 -8 -8 -8 -8 -8 -8 -8 -8 -8 -8 -8 -8 -8 -8 -8 -8 -8 -8 -8 -8 -8
Wind_Speed
11 10 8 10 12 12 14 14 12 12 12 12 10 10 9 8 6 6 6 5 4 4 3 2 2 2 2 2 2 3 5 6 6 6 6 6 7 7 7 7 7 7 7 7
7 7 8 11 14 14 15 14 16 15 15 10 10 8 7 7 6 6 6 6 5 5 4 3 3 2 2 2 2 3 4 5 4 5 5 6 7 7 7 7 7 7 7 7
7 4 6 10 10 11 8 9 10 11 9 8 7 7 7 7 6 6 7 7 6 6 5 5 4 3 3 3 3 3 4 4 4 5 6 6 6 7 7 7 7 7 7 7
5 4 9 4 1 5 7 7 7 6 6 6 7 7 6 5 6 8 8 7 7 6 6 5 4 3 3 2 2 3 3 4 4 5 5 5 6 7 7 6 6 6 6 7
4 7 9 5 2 4 5 4 3 5 6 6 6 4 2 3 7 8 8 8 7 7 6 5 4 3 2 2 2 3 3 3 4 4 5 6 6 6 6 6 6 6 6 7
6 6 7 2 2 1 3 4 0 2 4 4 3 3 4 7 9 9 8 7 6 6 5 4 3 2 2 3 3 3 3 3 3 4 5 6 6 5 5 5 5 5 6 7
11 9 8 2 0 3 5 2 2 2 3 3 3 5 7 8 8 8 7 7 6 5 5 4 3 2 3 3 4 4 3 3 3 4 4 4 4 4 4 5 5 5 6 6
8 8 7 2 2 3 2 3 2 3 4 4 6 7 7 8 8 8 7 7 6 5 5 4 3 3 4 4 4 3 3 3 4 4 3 3 4 4 5 5 5 5 6 6
6 5 1 1 0 2 2 3 4 4 5 5 7 8 8 8 8 8 8 7 6 6 5 5 4 4 4 5 3 3 3 3 3 3 3 4 4 5 4 5 5 5 5 5
5 5 3 2 2 2 3 4 5 6 6 6 7 8 9 8 8 8 7 7 6 5 5 5 5 5 5 4 3 3 3 3 3 3 3 3 3 4 4 5 5 5 5 5
6 5 4 3 3 4 6 6 6 6 6 6 7 8 8 8 8 8 7 6 5 5 5 6 5 5 4 3 3 3 3 3 3 3 3 3 3 4 5 5 5 5 5 5
6 4 4 6 6 6 6 7 7 7 7 7 7 8 8 8 7 7 6 6 6 6 6 6 5 5 4 3 3 3 3 3 3 3 2 2 2 3 4 6 6 8 8 7
6 5 6 6 6 5 5 6 6 6 6 7 7 7 7 7 7 6 6 6 6 6 6 5 5 4 4 3 2 3 3 3 2 2 2 2 3 3 3 3 5 8 9 9
4 4 5 5 5 5 5 5 5 5 5 5 6 6 6 6 6 6 6 6 6 5 5 5 4 4 4 3 2 3 3 3 3 2 2 3 3 3 3 3 4 3 4 6
3 4 4 4 4 4 4 4 4 5 5 6 5 5 6 6 6 6 6 6 5 4 4 4 4 4 4 3 3 3 2 2 2 2 2 2 2 3 3 4 4 4 3 3
3 3 2 2 3 4 4 4 5 6 6 6 6 6 6 5 5 6 6 5 4 4 4 4 4 5 4 3 2 2 2 2 2 2 2 2 2 3 3 4 4 4 4 4
2 3 3 4 4 4 4 4 5 5 6 6 6 6 5 5 5 5 5 5 4 4 4 4 4 4 3 2 2 1 1 2 2 2 2 3 3 3 3 4 4 4 4 4
2 3 3 3 4 4 5 5 5 5 5 5 5 5 4 5 5 6 6 5 4 4 5 5 4 4 3 3 2 2 2 2 2 2 2 2 3 3 3 3 4 5 4 4
4 3 3 3 3 3 4 5 5 5 5 5 5 5 5 5 5 5 5 4 4 5 5 5 6 4 4 3 3 2 2 2 2 2 2 3 3 3 3 4 4 4 4 4
5 4 4 4 4 4 4 5 5 5 5 5 5 5 5 5 5 5 5 4 4 4 5 6 5 4 4 4 3 3 3 3 3 3 3 3 3 4 4 4 4 4 5 5
4 4 4 4 5 5 4 5 5 5 6 5 5 5 6 6 6 5 4 5 5 5 5 6 4 4 4 4 4 3 3 3 3 4 4 4 4 4 4 4 4 5 5 5
4 4 4 4 4 5 5 5 5 5 5 5 5 5 6 6 6 5 4 4 6 7 6 5 4 5 6 6 4 4 4 4 4 4 4 4 4 5 5 5 5 5 5 5
4 4 4 5 5 5 6 5 5 5 6 6 6 6 6 6 5 5 5 5 5 8 6 5 6 8 8 5 4 4 4 5 5 5 5 5 5 5 5 6 5 5 5 5
5 5 5 5 5 5 6 7 6 6 6 6 6 6 6 6 5 5 5 8 9 9 6 7 9 9 8 5 4 4 5 5 5 5 5 5 5 5 5 5 5 5 6 6
5 5 5 5 5 5 6 7 7 6 6 6 7 7 6 5 6 7 7 7 9 9 7 7 9 9 6 5 5 5 5 5 6 6 6 5 5 5 5 5 5 6 6 6
5 5 5 5 5 5 5 5 5 6 6 7 7 6 6 6 6 6 6 7 8 8 7 6 6 6 5 5 5 5 6 6 6 6 6 6 6 6 6 6 7 6 6 6
5 4 4 4 5 5 5 5 6 6 6 7 8 7 7 7 6 6 7 6 6 6 6 5 5 5 5 5 5 6 5 5 5 5 5 5 5 5 6 7 6 6 5 6
Wind_Direction
260 270 256 254 250 229 225 236 249 263 270 283 303 309 313 318 322 330 334 330 324 319 320 313 295 284 264 244 224 204 199 202 207 206 198 192 189 186 187 189 193 192 192 194
263 257 255 261 256 243 237 241 248 263 272 285 299 307 313 318 320 318 319 316 316 317 312 305 291 274 259 245 229 214 209 209 205 201 197 194 193 189 188 191 193 194 197 197
258 269 280 261 245 226 224 225 231 246 266 298 305 312 314 316 318 315 316 315 311 309 305 300 292 274 254 243 224 214 213 210 204 201 201 200 194 193 193 194 196 199 202 203
260 258 247 259 110 211 224 233 228 249 281 302 305 305 298 312 327 324 323 319 313 309 307 302 294 284 270 244 222 216 216 214 207 203 204 200 199 202 200 197 200 204 206 209
226 247 264 262 216 195 208 237 231 256 290 312 324 305 285 341 335 322 316 315 313 308 304 299 290 279 254 236 228 224 223 221 214 205 202 201 204 206 204 202 205 208 211 214
224 239 248 226 141 178 204 232 69 289 308 325 335 304 322 340 331 326 325 323 322 318 313 305 302 285 249 243 240 242 242 234 222 214 209 209 211 210 209 207 211 211 218 222
230 241 259 278 203 173 218 277 32 331 317 305 291 301 313 317 319 321 321 320 320 317 311 306 303 282 263 259 255 258 253 235 221 217 217 215 215 214 210 208 213 221 227 231
214 230 247 123 141 203 315 10 335 311 304 294 296 306 308 311 316 320 321 320 319 315 311 309 297 275 269 270 273 263 241 227 222 218 212 212 214 217 213 210 218 228 234 239
214 235 356 106 181 345 345 317 313 305 301 293 296 302 307 307 310 314 315 316 314 309 308 306 294 276 269 279 282 258 239 233 225 216 218 216 215 216 215 215 221 229 234 241
250 260 280 295 310 313 315 309 306 301 298 292 291 296 299 300 302 307 310 312 311 306 303 303 299 288 280 281 265 240 230 230 226 218 220 223 223 218 218 219 223 227 233 241
255 274 299 296 306 313 316 312 308 308 302 294 294 295 296 298 299 301 304 305 302 296 295 297 299 294 293 281 253 236 231 226 224 222 220 225 231 232 232 235 236 236 239 240
253 256 268 281 295 308 309 306 303 303 303 302 296 294 296 294 295 296 297 300 298 297 297 299 299 298 296 282 250 232 228 226 224 223 225 229 239 262 254 249 254 252 253 253
271 288 281 286 300 313 307 304 302 298 295 296 296 293 292 293 298 300 300 300 298 298 298 299 299 297 295 281 255 240 240 236 234 230 230 233 235 243 266 269 250 251 253 252
278 292 283 288 298 313 317 319 320 317 312 304 300 301 302 302 305 307 305 304 301 299 301 304 304 302 302 288 263 252 251 243 239 237 237 240 243 248 252 260 270 271 260 256
300 288 275 296 316 331 338 338 337 332 331 331 328 321 316 310 308 308 309 308 304 303 307 311 308 308 310 291 267 257 254 248 247 247 244 245 249 254 254 252 257 267 272 271
323 330 325 323 329 336 339 336 329 326 329 328 327 325 323 317 312 312 316 318 311 310 316 319 316 315 315 300 282 269 260 249 259 254 252 253 249 247 250 251 254 258 260 263
318 315 316 320 322 325 324 321 318 317 319 320 321 323 327 330 331 335 338 341 336 327 325 324 319 324 324 317 304 294 281 258 254 261 259 256 254 252 252 254 257 261 262 260
303 294 298 299 306 315 322 326 324 322 318 318 321 326 330 330 328 329 332 337 342 344 340 333 330 332 329 327 319 304 290 283 285 282 280 275 273 266 261 259 261 264 269 269
9 357 346 338 326 320 321 324 327 326 326 327 329 330 328 325 322 323 327 332 333 332 336 337 334 331 323 321 319 302 297 296 295 291 288 285 284 274 266 263 265 266 267 266
19 15 10 2 356 347 334 330 329 330 329 328 326 327 329 328 327 325 325 319 314 311 316 322 324 323 320 320 317 300 293 288 286 286 284 279 278 278 275 273 272 272 270 268
5 4 2 358 353 349 341 334 334 331 331 331 326 320 317 318 320 317 314 312 319 323 319 318 318 316 316 315 311 298 289 284 284 284 282 281 281 280 279 278 277 276 276 275
350 351 347 345 344 339 337 336 332 328 329 330 327 321 318 319 321 317 302 296 311 322 321 314 311 310 313 310 299 293 289 287 285 284 280 279 279 279 279 278 277 277 276 276
338 337 334 333 329 323 325 329 329 326 323 322 320 319 317 313 312 309 308 314 317 317 314 305 308 310 310 304 293 290 288 286 283 280 278 277 275 276 276 277 276 276 276 277
329 327 324 322 323 323 323 325 326 321 315 311 310 309 309 309 308 302 298 307 314 311 306 305 307 308 308 300 292 289 287 284 282 281 279 277 275 275 274 274 275 276 276 276
324 321 320 324 324 318 314 316 318 319 319 317 315 315 310 302 298 305 306 306 310 309 304 306 309 309 305 294 290 288 286 283 282 282 280 279 276 275 274 274 273 275 275 274
323 321 318 315 311 310 313 314 314 316 316 315 315 315 312 308 303 302 301 303 304 305 304 302 303 303 297 292 290 289 287 287 285 281 277 278 278 277 275 274 275 273 273 273
321 319 318 318 320 319 315 312 311 312 312 310 310 312 313 312 308 307 305 303 303 301 300 300 299 297 296 294 292 289 286 284 282 280 280 278 277 277 276 276 275 273 273 272
Height
1498 1497 1498 1496 1495 1497 1497 1491 1487 1480 1480 1477 1479 1480 1479 1477 1475 1473 1471 1470 1468 1467 1466 1465 1465 1465 1465 1465 1465 1465 1466 1467 1469 1470 1471 1473 1475 1476 1477 1479 1480 1481 1482 1483
1498 1496 1496 1494 1489 1490 1490 1489 1486 1483 1480 1478 1479 1479 1478 1476 1474 1472 1470 1468 1467 1466 1465 1464 1463 1463 1463 1463 1463 1463 1464 1465 1466 1467 1468 1469 1471 1472 1474 1475 1476 1477 1478 1479
1493 1494 1493 1484 1479 1482 1483 1482 1481 1479 1477 1478 1478 1477 1476 1474 1473 1471 1469 1467 1465 1464 1463 1462 1461 1461 1461 1461 1461 1461 1462 1462 1463 1464 1465 1466 1467 1469 1470 1471 1472 1473 1474 1474
1494 1493 1489 1474 1478 1478 1478 1478 1479 1478 1478 1478 1477 1476 1474 1473 1472 1469 1468 1466 1464 1462 1461 1460 1459 1459 1459 1459 1459 1459 1459 1460 1460 1461 1462 1463 1464 1465 1466 1467 1468 1469 1469 1470
1493 1486 1475 1474 1477 1478 1477 1476 1477 1477 1476 1477 1476 1474 1472 1471 1470 1468 1466 1464 1462 1460 1459 1458 1457 1457 1456 1456 1456 1456 1456 1457 1457 1458 1458 1459 1460 1461 1462 1463 1463 1464 1465 1466
1489 1485 1475 1470 1475 1476 1476 1473 1475 1476 1475 1475 1475 1471 1470 1470 1468 1466 1464 1462 1460 1458 1457 1456 1455 1454 1453 1453 1453 1453 1453 1454 1454 1454 1455 1455 1456 1457 1457 1458 1459 1460 1460 1461
1485 1481 1470 1472 1474 1476 1474 1470 1475 1475 1475 1475 1474 1473 1472 1468 1466 1464 1462 1460 1458 1456 1455 1454 1452 1452 1451 1451 1450 1451 1451 1451 1451 1451 1451 1452 1452 1453 1453 1454 1454 1455 1455 1456
1480 1478 1474 1473 1474 1474 1473 1474 1474 1474 1473 1473 1472 1470 1468 1466 1464 1461 1459 1458 1456 1454 1453 1451 1450 1449 1448 1448 1448 1448 1447 1447 1447 1447 1448 1448 1448 1448 1449 1449 1450 1450 1451 1451
1473 1472 1472 1472 1473 1474 1474 1473 1473 1472 1471 1470 1469 1467 1465 1463 1461 1459 1457 1455 1454 1452 1450 1449 1448 1447 1446 1445 1445 1444 1444 1444 1444 1444 1444 1444 1444 1444 1445 1445 1445 1445 1446 1446
1473 1471 1472 1472 1472 1472 1472 1472 1471 1470 1469 1467 1466 1464 1462 1460 1458 1456 1454 1453 1451 1449 1448 1446 1445 1444 1443 1442 1442 1441 1440 1440 1440 1440 1440 1440 1440 1440 1441 1441 1441 1441 1441 1441
1470 1470 1470 1470 1470 1470 1469 1469 1468 1467 1465 1464 1462 1460 1459 1457 1455 1453 1452 1450 1448 1447 1445 1443 1442 1441 1440 1439 1438 1437 1437 1436 1436 1436 1436 1436 1436 1437 1437 1437 1437 1437 1437 1437
1466 1468 1469 1468 1468 1467 1466 1465 1464 1463 1461 1460 1459 1457 1455 1453 1451 1450 1448 1447 1445 1444 1442 1440 1439 1438 1437 1436 1435 1434 1433 1433 1433 1432 1432 1432 1432 1432 1432 1432 1432 1432 1432 1432
1466 1465 1465 1465 1464 1464 1463 1461 1460 1459 1457 1456 1455 1453 1452 1450 1448 1446 1444 1443 1442 1440 1439 1437 1436 1434 1433 1432 1431 1430 1430 1429 1429 1429 1429 1429 1428 1428 1428 1428 1428 1427 1427 1427
1463 1463 1462 1462 1461 1460 1459 1458 1456 1455 1454 1453 1451 1450 1448 1446 1444 1442 1441 1439 1438 1437 1435 1434 1433 1431 1430 1429 1428 1427 1427 1426 1426 1426 1425 1425 1425 1425 1424 1423 1423 1422 1422 1422
1460 1460 1459 1459 1458 1457 1456 1455 1453 1452 1451 1449 1448 1446 1444 1442 1440 1439 1437 1436 1434 1433 1432 1431 1430 1428 1427 1426 1425 1424 1424 1423 1423 1422 1422 1422 1421 1421 1420 1420 1419 1418 1417 1417
1457 1457 1457 1456 1455 1454 1453 1452 1451 1449 1448 1446 1445 1443 1441 1439 1438 1436 1434 1433 1431 1430 1429 1428 1427 1426 1424 1423 1422 1421 1421 1420 1420 1419 1418 1418 1418 1417 1416 1415 1415 1414 1413 1412
1455 1454 1454 1453 1453 1452 1451 1450 1449 1447 1446 1444 1442 1441 1439 1437 1435 1433 1432 1431 1429 1428 1427 1426 1425 1423 1422 1421 1420 1419 1418 1417 1417 1416 1416 1415 1414 1413 1412 1412 1411 1410 1409 1408
1453 1453 1452 1451 1451 1450 1449 1448 1447 1445 1444 1442 1440 1438 1437 1435 1433 1432 1430 1429 1427 1426 1425 1424 1422 1421 1420 1419 1418 1417 1416 1415 1414 1414 1413 1412 1411 1410 1409 1408 1406 1405 1404 1404
1452 1451 1451 1450 1449 1448 1447 1446 1445 1443 1442 1440 1438 1436 1435 1433 1432 1430 1429 1427 1426 1424 1423 1422 1421 1419 1418 1417 1416 1415 1414 1413 1412 1410 1409 1408 1407 1406 1405 1404 1403 1402 1400 1399
1452 1451 1450 1449 1448 1447 1446 1444 1443 1442 1440 1438 1436 1434 1433 1431 1430 1428 1427 1425 1424 1423 1421 1420 1418 1417 1415 1414 1413 1412 1411 1410 1409 1407 1406 1405 1404 1403 1401 1400 1399 1398 1396 1395
1451 1450 1449 1448 1447 1446 1445 1443 1442 1440 1438 1437 1435 1433 1431 1429 1428 1426 1424 1422 1422 1420 1419 1417 1416 1414 1413 1411 1410 1409 1408 1406 1405 1404 1403 1401 1400 1399 1398 1396 1395 1394 1392 1391
1451 1450 1448 1447 1446 1444 1443 1442 1440 1438 1436 1434 1433 1431 1428 1426 1425 1423 1421 1420 1418 1417 1415 1414 1412 1411 1409 1408 1407 1405 1404 1403 1401 1400 1399 1397 1396 1395 1393 1392 1391 1389 1387 1386
1450 1448 1447 1446 1444 1442 1441 1439 1438 1436 1434 1432 1430 1428 1426 1424 1422 1420 1418 1417 1415 1413 1411 1410 1408 1407 1405 1404 1402 1401 1400 1398 1397 1396 1394 1393 1392 1390 1389 1387 1386 1384 1383 1381
1448 1446 1445 1443 1442 1440 1438 1437 1435 1433 1431 1429 1427 1425 1423 1420 1418 1416 1414 1412 1411 1409 1407 1405 1404 1403 1401 1399 1398 1396 1395 1394 1392 1391 1390 1388 1387 1385 1384 1383 1381 1379 1378 1376
1445 1444 1442 1440 1439 1437 1435 1433 1431 1429 1427 1425 1423 1421 1419 1416 1414 1412 1410 1408 1406 1404 1402 1401 1399 1398 1396 1394 1393 1392 1390 1389 1388 1386 1385 1383 1382 1381 1379 1378 1376 1375 1373 1372
1442 1441 1439 1437 1436 1433 1431 1429 1427 1425 1422 1420 1418 1416 1414 1411 1409 1407 1405 1403 1401 1399 1398 1396 1394 1393 1391 1390 1388 1387 1385 1384 1383 1381 1380 1378 1377 1375 1374 1373 1371 1370 1368 1367
1439 1438 1436 1434 1432 1430 1428 1425 1423 1421 1418 1416 1413 1411 1409 1407 1405 1402 1400 1398 1397 1395 1393 1392 1390 1389 1387 1385 1384 1382 1380 1379 1377 1376 1375 1373 1372 1370 1369 1368 1366 1365 1364 1362